﻿Дата;Google;ReadMe.ru;C8 Network;AdRiver
2015-08-12;1;0;0;0
2015-08-10;1;0;0;0
2015-06-09;1;0;0;0
2015-05-27;1;0;0;0
2015-05-22;2;0;0;0
2015-05-19;1;0;0;0
2015-05-18;1;0;0;0
2015-05-17;2;0;0;0
2015-05-15;1;0;0;0
2015-05-14;2;0;0;0
2015-05-13;3;0;0;0
2015-05-12;1;0;0;0
2015-05-11;1;0;0;0
2015-05-09;1;0;0;0
2015-05-08;5;0;0;0
2015-05-07;4;0;0;0
2015-05-06;8;0;0;0
2015-04-28;2;0;0;0
2015-04-27;4;0;0;0
2015-04-26;2;0;0;0
2015-04-25;2;0;0;0
2015-04-22;4;0;0;0
2015-04-21;8;0;0;0
2015-04-20;17;0;0;0
2015-04-19;8;0;0;0
2015-04-18;16;0;0;0
2015-04-17;22;0;0;0
2015-04-16;14;0;0;0
2015-04-15;19;0;0;0
2015-04-14;8;0;0;0
2015-04-13;27;0;0;0
2015-04-12;21;0;0;0
2015-04-11;8;0;0;0
2015-04-09;7;0;0;0
2015-04-08;5;0;0;0
2015-03-31;0;0;0;1
2015-03-04;1;0;0;0
2015-03-03;1;0;0;0
2015-03-02;1;0;0;0
2015-03-01;1;0;0;0
2015-02-25;7;0;0;0
2015-02-24;22;0;0;0
2015-02-23;19;0;0;0
2015-02-22;21;0;0;0
2015-02-21;13;0;0;0
2015-02-20;5;0;0;0
2015-02-18;1;0;0;0
2015-02-17;1;0;0;0
2013-09-17;14;0;0;0
2013-09-16;16;0;0;0
2013-09-15;20;0;0;0
2013-09-14;20;0;0;0
2013-09-13;20;0;0;0
2013-09-12;17;0;0;0
2013-09-11;14;0;0;0
2013-09-10;16;0;0;0
2013-09-09;10;0;0;0
2013-09-08;5;0;0;0
2013-09-07;3;0;0;0
2013-09-06;11;0;0;0
2013-09-05;17;0;0;0
2013-09-04;18;0;0;0
2013-09-03;1;0;0;0
2013-08-06;11;0;0;0
2013-08-05;24;0;0;0
2013-08-04;24;0;0;0
2013-08-03;21;0;0;0
2013-08-02;24;0;0;0
2013-08-01;20;0;0;0
2013-07-31;22;0;0;0
2013-07-30;7;0;0;0
2013-07-29;4;0;0;0
2013-07-20;7;0;0;0
2013-07-19;8;0;0;0
2013-07-18;5;0;0;0
2013-07-17;2;0;0;0
2013-05-02;0;0;1;0
2013-04-29;0;1;0;0
2013-04-26;1;0;0;0
2012-11-29;0;1;0;0
